ONEWEB-0275 (48993 NORAD) Tracking and Keplerian Element Data

This shows tracking and keplerian element data for the satellite.

Feedback or suggestion? Click here.




ElementValue
Catalog48993
NameONEWEB-0275
Epoch Orbit1288
Epoch Day262.16668981
Epoch Year2021
RAAN213.4183
Inclination87.8224
Eccentricity0.0009107
Argument of Perigee31.7625
Mean Anonmoly182.0389
Mean Motion13.54317529
Decay Rate1.4E-07
L11 48993U 21060AC 21262.16668981 .00000014 00000-0 00000+0 0 9994
L22 48993 87.8224 213.4183 0009107 31.7625 182.0389 13.54317529 12889

Live tracking and technical data element details for ONEWEB-0275 (NORAD 48993). ONEWEB-0275 can be tracked NOW for your location showing map with azimuth and elevation plus other details from your city location.

Track the satellite on the map from your city or location and see movement details for azimuth, elevation, latitude, longitude, range, height, and movement on the map or in text.







IsCatalogInMostPopularTable: catalog: 48993, numindb: 16
Update: records affected: 1



GetName: 48993 ONEWEB-0275

Hit Count: updated at: Fri, 24 Sep 2021 18:43:12 GMT